STARLINK-11377, 62013

Orbit data source: Space-Track

STARLINK-11377, 62013 is a payload satellite owned by SpaceX/Seattle (US) in LEO that was launched on Mon, 18 Nov 2024 UTC via an FALCON 9 launch vehicle from the Air Force Western Test Range (AFWTR). Payload-class satellites include a variety of spacecraft equipped with specific instruments for various scientific and technological missions. These include communications satellites like Starlink; space stations such as the ISS; scientific satellites like the Hubble; Earth observation satellites from companies like Planet Labs, Umbra, and HawkEye 360; GPS; miniature CubeSats for education and research; and military/defense satellites.

Loading next visibility...
Identifier
62013, 2024-213F
Orbit
LEO
Last TLE update
15 hours ago
Origin
Manufacturer
SpaceX/Seattle
Mission
Operational Commercial Communications
Bus & Motor
STARLINK V2M, Unknown motor
Mass
730 kg wet, ~700 kg dry
Launch date (UTC)
2024-11-18 (7 months ago)
Launch vehicle
FALCON 9
Launch site
Air Force Western Test Range (AFWTR)
Object type
Payload
Rocket body
Debris
Shape & HBR
Box + 2 Pan, 29 m
Radar Cross Section
36.964 m², Large (>1 m²)

Expand to show TLE details & history

TLE from 15 hours ago
0 STARLINK-11377
1 62013U 24213F   25181.53946591  .00105070  00000-0  85984-3 0  9993
2 62013  53.1565 204.1641 0001666  83.9903 276.1305 15.69746812 36527
Epoch: 2025-06-30T12:56Z
TLE epoch observation values (Epoch: 2025-06-30T12:56:49.854Z)
Latitude
-0.00001°
Longitude
91.10855°
Altitude
360.416 km
Speed
7.694 km/s
True Right ascension
13h 36m 39s
True Declination
0° 00' 00"
Sunlit
Object was in daylight at epoch
Visualization orbit readout
Latitude
-44.8932°
Longitude
40.09348°
Altitude
375.355 km
Speed
7.684 km/s
Apparent Right ascension
06h 50m 58s
Apparent Declination
-54° 33' 42"
Sunlit
Object is in daylight
Visualization observer readout
Local Sidereal Time
15:35:18
Azimuth
228.965° WSW
Elevation
-54.59°
Doppler factor
1
Orbital elements
Apogee altitude
361.005 km
Perigee altitude
358.76 km
Semi-major axis
6,738.02 km
Eccentricity
0.00017
Inclination
53.1565°
RAAN
204.1641°
Arg. of periapsis
83.9903°
True anomaly
Unknown
Mean anomaly
276.1305°
Eccentric anomaly
Unknown
Mean motion
3.92414 °/min
Orbital period
91.74 mins
BSTAR
0.00085984
Loading maneuver chart data...
Loading SW <> Apogee altitude chart data...
Loading historical data...
Loading historical data...
Loading historical data...
Loading historical data...
Loading historical data...
Loading historical data...
Loading historical data...

STARLINK-11377 Visibility forecast

Observer location: undefined°, undefined°

Span
Click to sort rows by Start time (UTC) header in descending order
Start Az.
Max El. time (UTC)
Max El. Az.
Max El.
End time (UTC)
End Az.
5 mins2025-07-01 04:24:54.871Z234.583° WSW2025-07-01 04:26:54.871Z253.564° W40.462°2025-07-01 04:29:54.871Z46.732° ENE
4 mins2025-07-01 10:50:54.871Z328.075° NNW2025-07-01 10:51:54.871Z21.288° NNE41.377°2025-07-01 10:54:54.871Z120.671° SE
|